Location: Budapest
(47.4979°N, 19.0402°E)
Time: 18:57:30
(UTC+02:00)

ISS - Visible Passes

Search period start: 30 September 2020 00:00
Search period end: 10 October 2020 00:00
Orbit: 419 x 421 km, 51.6° (Epoch: 01 October)

Date Brightness Start Highest point End Pass type
(mag) Time Alt. Az. Time Alt. Az. Time Alt. Az.
30 Sep -3.8 20:17:51 10° WNW 20:21:09 78° N 20:21:09 78° N visible
01 Oct -3.5 19:30:33 10° WNW 19:33:54 60° NNE 19:35:42 24° E visible
01 Oct -1.0 21:07:33 10° WNW 21:08:40 18° W 21:08:40 18° W visible
02 Oct -3.1 20:20:07 10° WNW 20:23:16 48° SW 20:23:16 48° SW visible
03 Oct -3.7 19:32:46 10° WNW 19:36:08 73° SSW 19:37:54 25° SE visible
03 Oct -0.5 21:10:39 10° WSW 21:10:53 11° WSW 21:10:53 11° WSW visible
04 Oct -3.7 18:45:26 10° WNW 18:48:49 80° NNE 18:52:11 10° ESE visible
04 Oct -1.7 20:22:42 10° W 20:25:20 21° SW 20:25:36 21° SW visible
05 Oct -2.2 19:35:06 10° W 19:38:09 32° SW 19:40:25 15° SSE visible
06 Oct -2.9 18:47:38 10° WNW 18:50:54 48° SSW 18:54:09 10° SE visible
07 Oct -0.9 19:38:09 10° WSW 19:39:55 14° SW 19:41:42 10° SSW visible
08 Oct -1.3 18:50:08 10° W 18:52:44 21° SW 18:55:21 10° S visible
